Weather in Zykovo

Russia / Kirov Oblast     57°36′03″N   49°38′25″E
temp.,
°C
wind,
m/s
gust,
m/s
humid.,
%
clouds,
%
prec.,
mm/h
press.,
hPa
HPBL,
m
26 september, sun
sun2600:00+7ene1195100 0.0 101014
03:00+7ene1193100 0.0 101012
06:00+7e2288100 0.0 100967
09:00+7e2491100 0.1 1008155
12:00+8e238798 0.1 1009311
15:00+9e2389100 0.1 1009144
18:00+8ene479584 0.1 1010302
21:00+7ne379559 0.1 1011211
27 september, mon
mon2700:00+7ene4989100 0.0 1012353
03:00+7ene61190100 0.0 1013639
06:00+6ene71292100 0.4 1015737
09:00+4ene71396100 1.4 1017735
12:00+4ene61289100 0.7 1019945
15:00+6ene71277100 0.8 10211178
18:00+6ene61169100 0.0 10231001
21:00+3ne512779 0.0 1025401
28 september, tue
tue2800:00+2ne512815 0.0 1026350
03:000ne411865 0.0 1028287
06:000ne4118946 0.0 1029296
09:00+4ne58665 0.0 1029606
12:00+8ne56495 0.0 10291160
15:00+8ne46485 0.0 10291319
18:00+4nne2267100 0.0 103034
21:00+4nne2470100 0.0 103089
29 september, wed
wed2900:00+2nne117673 0.0 103115
03:00+1nne228411 0.0 103131
06:000nne22885 0.0 103238
09:00+5nne23625 0.0 1032437
12:00+9nne23485 0.0 10321190
15:00+9n334865 0.0 10311407
18:00+6n236498 0.0 103183
21:00+5n2483100 0.0 1032144
30 september, thu
thu3000:00+5n1185100 0.0 103237
03:00+4nw0081100 0.0 103212
06:00+4nw1186100 0.0 103113
09:00+6w1281100 0.0 1032218
12:00+8wnw2269100 0.0 1031599
15:00+9wnw236212 0.1 1030835
18:00+5wnw228024 0.0 103020
21:00+6wsw2274100 0.0 102952